This is the latest recevied weather packets stored in our database for station/object KE5WTH-14. If no packets are shown the sender has not sent any weather packets the latest 1 day(s).
| Time | Temp. | Humidity | Pressure | Rain* | Wind** | Luminosity | Snow |
|---|---|---|---|---|---|---|---|
| 1778057281 | 13.33° C | 75% | 1010.4 hPa | 0 mm | 2.24 m/s, 16° | 0 W/m² | - |
| 1778057220 | 13.33° C | 75% | 1010.4 hPa | 0 mm | 2.24 m/s, 14° | 0 W/m² | - |
| 1778057157 | 13.33° C | 75% | 1010.4 hPa | 0 mm | 2.24 m/s, 24° | 0 W/m² | - |
| 1778057097 | 13.33° C | 75% | 1010.5 hPa | 0 mm | 2.68 m/s, 18° | 0 W/m² | - |
| 1778057034 | 13.33° C | 75% | 1010.4 hPa | 0 mm | 3.13 m/s, 14° | 0 W/m² | - |
| 1778056969 | 13.33° C | 75% | 1010.4 hPa | 0 mm | 3.13 m/s, 0° | 0 W/m² | - |
| 1778056907 | 13.33° C | 75% | 1010.4 hPa | 0 mm | 3.13 m/s, 16° | 0 W/m² | - |
| 1778056844 | 13.89° C | 75% | 1010.3 hPa | 0 mm | 2.68 m/s, 0° | 0 W/m² | - |
| 1778056784 | 13.89° C | 76% | 1010.3 hPa | 0 mm | 2.68 m/s, 0° | 0 W/m² | - |
| 1778056720 | 13.89° C | 76% | 1010.4 hPa | 0 mm | 2.68 m/s, 14° | 0 W/m² | - |
| 1778056659 | 13.89° C | 75% | 1010.3 hPa | 0 mm | 3.13 m/s, 6° | 0 W/m² | - |
| 1778056598 | 13.89° C | 76% | 1010.3 hPa | 0 mm | 3.13 m/s, 0° | 0 W/m² | - |
| 1778056537 | 13.89° C | 76% | 1010.3 hPa | 0 mm | 2.68 m/s, 11° | 0 W/m² | - |
| 1778056476 | 13.89° C | 76% | 1010.4 hPa | 0 mm | 2.68 m/s, 7° | 0 W/m² | - |
| 1778056414 | 13.89° C | 76% | 1010.4 hPa | 0 mm | 3.13 m/s, 338° | 0 W/m² | - |
| 1778056353 | 13.89° C | 76% | 1010.4 hPa | 0 mm | 2.24 m/s, 350° | 0 W/m² | - |
| 1778056293 | 13.89° C | 76% | 1010.2 hPa | 0 mm | 1.79 m/s, 6° | 0 W/m² | - |
| 1778056232 | 13.89° C | 76% | 1010.3 hPa | 0 mm | 1.79 m/s, 347° | 0 W/m² | - |
| 1778056173 | 13.89° C | 76% | 1010.3 hPa | 0 mm | 1.79 m/s, 13° | 0 W/m² | - |
| 1778056113 | 13.89° C | 76% | 1010.1 hPa | 0 mm | 2.24 m/s, 0° | 0 W/m² | - |
| 1778056054 | 13.89° C | 76% | 1010.1 hPa | 0 mm | 2.24 m/s, 6° | 0 W/m² | - |
| 1778056021 | 13.89° C | 76% | 1010.1 hPa | 0 mm | 2.24 m/s, 355° | 0 W/m² | - |
| 1778055990 | 13.89° C | 76% | 1010.1 hPa | 0 mm | 1.79 m/s, 0° | 0 W/m² | - |
| 1778055963 | 13.89° C | 77% | 1010.2 hPa | 0 mm | 1.79 m/s, 347° | 0 W/m² | - |
| 1778055934 | 13.89° C | 77% | 1010.2 hPa | 0 mm | 1.79 m/s, 1° | 0 W/m² | - |
* Rain latest hour (hover to see other rain measurements)
** Current wind speed in m/s (hover to see current wind gust speed)